This is the latest recevied weather packets stored in our database for station/object K7RAP. If no packets are shown the sender has not sent any weather packets the latest 10 day(s).
| Time | Temp. | Humidity | Pressure | Rain* | Wind** | Luminosity | Snow |
|---|---|---|---|---|---|---|---|
| 1777250404 | 18.89° C | 48% | 1008.8 hPa | - | - | - | - |
| 1777249804 | 20° C | 47% | 1008.5 hPa | - | - | - | - |
| 1777249203 | 20° C | 47% | 1008.5 hPa | - | - | - | - |
| 1777248603 | 20.56° C | 43% | 1008.5 hPa | - | - | - | - |
| 1777248004 | 20.56° C | 39% | 1008.1 hPa | - | - | - | - |
| 1777247404 | 20.56° C | 39% | 1008.1 hPa | - | - | - | - |
| 1777246804 | 21.11° C | 39% | 1008.1 hPa | - | - | - | - |
| 1777246204 | 20.56° C | 44% | 1008.1 hPa | - | - | - | - |
| 1777245604 | 20.56° C | 44% | 1008.1 hPa | - | - | - | - |
| 1777245003 | 19.44° C | 43% | 1008.1 hPa | - | - | - | - |
| 1777244404 | 22.22° C | 43% | 1008.1 hPa | - | - | - | - |
| 1777243803 | 22.22° C | 43% | 1008.1 hPa | - | - | - | - |
| 1777243204 | 21.67° C | 47% | 1008.1 hPa | - | - | - | - |
| 1777242604 | 20° C | 48% | 1008.5 hPa | - | - | - | - |
| 1777242004 | 20° C | 48% | 1008.5 hPa | - | - | - | - |
| 1777241403 | 20° C | 47% | 1008.1 hPa | - | - | - | - |
| 1777240805 | 21.67° C | 41% | 1008.1 hPa | - | - | - | - |
| 1777240203 | 21.67° C | 41% | 1008.1 hPa | - | - | - | - |
| 1777239605 | 21.11° C | 36% | 1008.1 hPa | - | - | - | - |
| 1777239004 | 21.11° C | 39% | 1008.1 hPa | - | - | - | - |
| 1777238404 | 21.11° C | 39% | 1008.1 hPa | - | - | - | - |
| 1777237804 | 20.56° C | 43% | 1008.1 hPa | - | - | - | - |
| 1777237204 | 20° C | 44% | 1008.1 hPa | - | - | - | - |
| 1777236003 | 19.44° C | 45% | 1008.1 hPa | - | - | - | - |
| 1777235404 | 19.44° C | 46% | 1008.1 hPa | - | - | - | - |
* Rain since midnight (hover to see other rain measurements)
** Current wind speed in m/s (hover to see current wind gust speed)